| time (UTC) | temp F | wind direction | speed knots | gust knots | rain 1hr in | rain 24hr in | rain mn in | humidity % | barometer mb |
| 20260509021528 | 61 | 170 | 0.0 | 0.0 | 0.00 | 0.00 | 0.00 | 70 | 1013.7 |
| 20260509020034 | 57 | 170 | 0.0 | 0.0 | 0.00 | 0.00 | 0.00 | 75 | 1013.7 |
| 20260509014532 | 58 | 170 | 0.0 | 0.0 | 0.00 | 0.00 | 0.00 | 70 | 1013.5 |
| 20260509013024 | 59 | 170 | 0.0 | 0.0 | 0.00 | 0.00 | 0.00 | 70 | 1013.5 |
| 20260509011524 | 64 | 170 | 0.0 | 0.0 | 0.00 | 0.00 | 0.00 | 64 | 1013.4 |
| 20260509010025 | 62 | 170 | 0.0 | 1.7 | 0.00 | 0.00 | 0.00 | 65 | 1013.3 |
| 20260509004536 | 64 | 170 | 0.0 | 0.0 | 0.00 | 0.00 | 0.00 | 61 | 1013.4 |
| 20260509003027 | 65 | 170 | 0.0 | 0.0 | 0.00 | 0.00 | 0.00 | 56 | 1013.5 |
| 20260509001528 | 65 | 170 | 0.0 | 0.0 | 0.00 | 0.00 | 0.00 | 56 | 1013.4 |
| 20260509000007 | 67 | 172 | 0.0 | 1.7 | 0.00 | 0.00 | 0.00 | 47 | 1013.3 |
| 20260508234504 | 68 | 224 | 0.0 | 4.3 | 0.00 | 0.00 | 0.00 | 46 | 1013.5 |
| 20260508233003 | 69 | 313 | 1.7 | 5.2 | 0.00 | 0.00 | 0.00 | 40 | 1013.5 |
| 20260508231502 | 69 | 292 | 0.9 | 5.2 | 0.00 | 0.00 | 0.00 | 41 | 1013.4 |
| 20260508230019 | 69 | 277 | 1.7 | 5.2 | 0.00 | 0.00 | 0.00 | 43 | 1013.3 |
| 20260508224521 | 69 | 315 | 1.7 | 5.2 | 0.00 | 0.00 | 0.00 | 42 | 1013.3 |
| 20260508223033 | 69 | 268 | 1.7 | 3.5 | 0.00 | 0.00 | 0.00 | 44 | 1013.4 |
| 20260508221510 | 69 | 280 | 1.7 | 5.2 | 0.00 | 0.00 | 0.00 | 40 | 1013.4 |
| 20260508220009 | 70 | 298 | 3.5 | 7.0 | 0.00 | 0.00 | 0.00 | 40 | 1013.4 |
| 20260508214507 | 70 | 248 | 1.7 | 5.2 | 0.00 | 0.00 | 0.00 | 37 | 1013.5 |
| 20260508213003 | 71 | 245 | 2.6 | 5.2 | 0.00 | 0.00 | 0.00 | 39 | 1013.6 |
| 20260508211518 | 70 | 244 | 2.6 | 5.2 | 0.00 | 0.00 | 0.00 | 35 | 1013.8 |
| 20260508210016 | 70 | 224 | 1.7 | 7.0 | 0.00 | 0.00 | 0.00 | 37 | 1013.5 |
| 20260508204516 | 71 | 217 | 0.9 | 6.1 | 0.00 | 0.00 | 0.00 | 40 | 1013.5 |
| 20260508203009 | 70 | 196 | 1.7 | 4.3 | 0.00 | 0.00 | 0.00 | 42 | 1013.8 |
| 20260508201510 | 69 | 327 | 2.6 | 7.0 | 0.00 | 0.00 | 0.00 | 37 | 1013.9 |
| 20260508200003 | 70 | 261 | 0.9 | 3.5 | 0.00 | 0.00 | 0.00 | 41 | 1014.1 |
| 20260508194504 | 70 | 336 | 1.7 | 4.3 | 0.00 | 0.00 | 0.00 | 39 | 1014.4 |
| 20260508193033 | 70 | 273 | 2.6 | 5.2 | 0.00 | 0.00 | 0.00 | 36 | 1014.7 |
| 20260508191533 | 69 | 320 | 2.6 | 6.1 | 0.00 | 0.00 | 0.00 | 39 | 1015.1 |
| 20260508190026 | 69 | 296 | 0.0 | 3.5 | 0.00 | 0.00 | 0.00 | 40 | 1015.5 |
| 20260508184510 | 68 | 252 | 3.5 | 7.8 | 0.00 | 0.00 | 0.00 | 41 | 1015.6 |
| 20260508183009 | 69 | 302 | 1.7 | 5.2 | 0.00 | 0.00 | 0.00 | 42 | 1015.7 |
| 20260508181506 | 69 | 212 | 0.9 | 3.5 | 0.00 | 0.00 | 0.00 | 41 | 1015.9 |
| 20260508180004 | 69 | 236 | 1.7 | 6.1 | 0.00 | 0.00 | 0.00 | 43 | 1016.0 |
| 20260508174521 | 68 | 334 | 0.9 | 4.3 | 0.00 | 0.00 | 0.00 | 37 | 1016.0 |
| 20260508173019 | 67 | 260 | 2.6 | 6.1 | 0.00 | 0.00 | 0.00 | 40 | 1016.2 |
| 20260508171514 | 66 | 279 | 3.5 | 6.1 | 0.00 | 0.00 | 0.00 | 40 | 1016.5 |
| 20260508170016 | 66 | 165 | 0.0 | 7.0 | 0.00 | 0.00 | 0.00 | 52 | 1016.8 |
| 20260508164516 | 65 | 265 | 1.7 | 5.2 | 0.00 | 0.00 | 0.00 | 48 | 1017.3 |
| 20260508163009 | 67 | 344 | 0.9 | 6.1 | 0.00 | 0.00 | 0.00 | 43 | 1017.4 |
| 20260508161525 | 65 | 205 | 2.6 | 6.1 | 0.00 | 0.00 | 0.00 | 50 | 1017.8 |
| 20260508160025 | 65 | 353 | 0.9 | 2.6 | 0.00 | 0.00 | 0.00 | 54 | 1017.9 |
| 20260508154522 | 63 | 356 | 0.9 | 4.3 | 0.00 | 0.00 | 0.00 | 54 | 1017.9 |
| 20260508153018 | 63 | 161 | 0.9 | 4.3 | 0.00 | 0.00 | 0.00 | 54 | 1018.1 |
| 20260508151515 | 62 | 242 | 1.7 | 2.6 | 0.00 | 0.00 | 0.00 | 52 | 1018.2 |
| 20260508150018 | 61 | 151 | 0.9 | 2.6 | 0.00 | 0.00 | 0.00 | 56 | 1018.4 |
| 20260508144509 | 60 | 279 | 0.0 | 3.5 | 0.00 | 0.00 | 0.00 | 58 | 1018.5 |
| 20260508143024 | 60 | 121 | 0.0 | 3.5 | 0.00 | 0.01 | 0.00 | 69 | 1018.4 |
| 20260508141522 | 58 | 220 | 0.0 | 1.7 | 0.00 | 0.01 | 0.00 | 71 | 1018.7 |
| 20260508140020 | 56 | 262 | 0.9 | 1.7 | 0.00 | 0.01 | 0.00 | 74 | 1018.9 |
| 20260508134518 | 55 | 315 | 0.0 | 2.6 | 0.00 | 0.01 | 0.00 | 79 | 1018.9 |
| 20260508133015 | 54 | 275 | 0.9 | 1.7 | 0.00 | 0.01 | 0.00 | 81 | 1018.8 |
| 20260508131515 | 53 | 298 | 0.0 | 1.7 | 0.00 | 0.01 | 0.00 | 85 | 1018.7 |
| 20260508130014 | 52 | 298 | 0.0 | 1.7 | 0.00 | 0.01 | 0.00 | 87 | 1018.6 |
| 20260508124525 | 50 | 294 | 0.9 | 0.9 | 0.00 | 0.01 | 0.00 | 88 | 1018.6 |
| 20260508123024 | 49 | 184 | 0.0 | 0.9 | 0.00 | 0.01 | 0.00 | 90 | 1018.6 |
| 20260508121523 | 47 | 180 | 0.0 | 0.0 | 0.00 | 0.02 | 0.00 | 90 | 1018.5 |
| 20260508120032 | 46 | 180 | 0.0 | 0.0 | 0.00 | 0.02 | 0.00 | 88 | 1018.4 |
| 20260508114517 | 46 | 180 | 0.0 | 0.0 | 0.00 | 0.02 | 0.00 | 87 | 1018.1 |
| 20260508113016 | 44 | 179 | 0.0 | 0.0 | 0.00 | 0.02 | 0.00 | 89 | 1017.9 |
| 20260508111511 | 48 | 179 | 0.0 | 0.0 | 0.00 | 0.02 | 0.00 | 91 | 1017.7 |
| 20260508110009 | 43 | 178 | 0.0 | 0.0 | 0.00 | 0.02 | 0.00 | 87 | 1017.5 |
| 20260508104508 | 45 | 178 | 0.0 | 0.0 | 0.00 | 0.03 | 0.00 | 86 | 1017.2 |
| 20260508103026 | 46 | 178 | 0.0 | 0.0 | 0.00 | 0.03 | 0.00 | 85 | 1017.0 |
| 20260508101522 | 44 | 179 | 0.0 | 0.0 | 0.00 | 0.03 | 0.00 | 89 | 1017.0 |
| 20260508100019 | 46 | 178 | 0.0 | 0.0 | 0.00 | 0.04 | 0.00 | 83 | 1016.7 |
| 20260508094517 | 45 | 178 | 0.0 | 0.0 | 0.00 | 0.04 | 0.00 | 86 | 1016.7 |
| 20260508093014 | 45 | 178 | 0.0 | 0.0 | 0.00 | 0.04 | 0.00 | 87 | 1016.5 |
| 20260508091508 | 44 | 178 | 0.0 | 0.0 | 0.00 | 0.05 | 0.00 | 88 | 1016.5 |
| 20260508090024 | 46 | 178 | 0.0 | 0.0 | 0.00 | 0.07 | 0.00 | 89 | 1016.5 |
| 20260508084525 | 46 | 178 | 0.0 | 0.0 | 0.00 | 0.08 | 0.00 | 86 | 1016.4 |
| 20260508083024 | 46 | 178 | 0.0 | 0.0 | 0.00 | 0.08 | 0.00 | 88 | 1016.4 |
| 20260508081522 | 48 | 178 | 0.0 | 0.0 | 0.00 | 0.08 | 0.00 | 86 | 1016.3 |
| 20260508080015 | 48 | 178 | 0.0 | 0.0 | 0.00 | 0.08 | 0.00 | 84 | 1016.5 |
| 20260508074512 | 47 | 178 | 0.0 | 0.0 | 0.00 | 0.09 | 0.00 | 86 | 1016.6 |
| 20260508073027 | 48 | 178 | 0.0 | 0.0 | 0.00 | 0.09 | 0.00 | 83 | 1016.5 |
| 20260508071525 | 48 | 178 | 0.0 | 1.7 | 0.00 | 0.09 | 0.00 | 87 | 1016.6 |
| 20260508070026 | 51 | 178 | 0.0 | 0.0 | 0.00 | 0.09 | 0.00 | 83 | 1016.6 |
| 20260508064527 | 49 | 178 | 0.0 | 0.0 | 0.00 | 0.09 | 0.00 | 90 | 1016.6 |
| 20260508063023 | 50 | 178 | 0.0 | 0.0 | 0.00 | 0.09 | 0.00 | 85 | 1016.6 |
| 20260508061516 | 49 | 178 | 0.0 | 0.0 | 0.00 | 0.09 | 0.00 | 86 | 1016.5 |
| 20260508060016 | 51 | 178 | 0.0 | 0.0 | 0.00 | 0.09 | 0.00 | 85 | 1016.6 |
| 20260508054512 | 53 | 178 | 0.0 | 0.0 | 0.00 | 0.09 | 0.00 | 80 | 1016.7 |
| 20260508053008 | 51 | 178 | 0.0 | 0.0 | 0.00 | 0.09 | 0.00 | 84 | 1016.7 |
| 20260508051530 | 51 | 178 | 0.0 | 0.0 | 0.00 | 0.09 | 0.00 | 84 | 1016.6 |
| 20260508050022 | 52 | 178 | 0.0 | 0.0 | 0.00 | 0.09 | 0.00 | 82 | 1016.7 |
| 20260508044521 | 53 | 178 | 0.0 | 0.0 | 0.00 | 0.09 | 0.00 | 83 | 1016.4 |
| 20260508043021 | 51 | 178 | 0.0 | 0.0 | 0.00 | 0.09 | 0.00 | 85 | 1016.4 |
| 20260508041516 | 55 | 178 | 0.0 | 0.0 | 0.00 | 0.09 | 0.00 | 79 | 1016.2 |
| 20260508040013 | 52 | 178 | 0.0 | 0.0 | 0.00 | 0.09 | 0.00 | 87 | 1016.1 |
| 20260508034510 | 52 | 178 | 0.0 | 0.0 | 0.00 | 0.09 | 0.09 | 85 | 1016.2 |
| 20260508033027 | 58 | 178 | 0.0 | 0.0 | 0.00 | 0.09 | 0.09 | 80 | 1016.0 |
| 20260508031526 | 56 | 178 | 0.0 | 1.7 | 0.00 | 0.09 | 0.09 | 84 | 1016.1 |
| 20260508030022 | 53 | 57 | 0.0 | 0.9 | 0.00 | 0.09 | 0.09 | 87 | 1016.1 |
| 20260508024516 | 56 | 57 | 0.0 | 0.0 | 0.00 | 0.10 | 0.09 | 83 | 1015.8 |
| 20260508023015 | 56 | 57 | 0.0 | 0.0 | 0.00 | 0.10 | 0.09 | 85 | 1015.8 |